map of BVB home
BVB - Airport
Location
City:  Boa Vista, Roraima, Brazil
Name:Atlas Brasil Cantanhede Airport
ICAO:SBBV
IATA:BVB

Details
Type:Airport (Aerodrome, Airfield)
Use:Public/Civil, International (customs port of entry)
Latitude:250'47"N (2.846311)
Longitude:6041'24"W (-60.690068)
Datum:WGS 1984
Elevation:276 ft (84 m)
Variation:15.54W (WMM2015v2 magnetic declination)
-0.10 annual change
Runways:1
Longest:8858 × 148 ft (2700 × 45 m), paved

Time
Time Zone:UTC-4
Local Time:

Weather
METAR:SBBV 041400Z 08018KT 9999 SCT015 BKN070 30/20 Q1013
TAF:SBBV 041000Z 0412/0512 09010KT CAVOK TX33/0417Z TN26/0508Z
BECMG 0417/0419 13008KT 9999 BKN040
BECMG 04210423 SCT040 FEW045TCU
BECMG 0501/0503 CAVOK
RMK PFF

Related Locations
Nearby:
Farthest:WAFS: 12450 mi / 20036 km
Sumarorong [Sumarorong Airport], SR, ID

Find:

   beyond  
but within

Other Information
Maps:
NOTAMs:
Links:
Sources:

  
  • flag of Brazil
  • flag of Roraima
  

Sectional Chart

Flight Planning
at skyvector.com

Satellite Image

Google Maps Satellite view

 

Copyright © 2004-2019 Karl L. Swartz. All rights reserved.
The Great Circle Mapper name and logo are trademarks of the Great Circle Mapper.
All other trademarks mentioned herein belong to their respective owners.
Please see credits for attibutions and further copyright information.

  Follow gcmap on Facebook Follow gcmap on Twitter GCmap on LinkedIn

hCard Microformat

Geo Microformat